Theta_e
287 286 286 286 286 285 285 285 284 284 284 284 284 284 284 284 284 284 284 285 286 288 290 292 293 296 300 302 305 309 311 311 311 310 309 308 307 307 307 307 306 306 306 305 305 304 304 303 302 301 299 299 298 297 296 295 295 294 293 293 292 292 291 291 291 291 291 290 290 290 290 290 290 290 290 290 290 290 291 292 293 294 295 294 294
286 286 286 286 286 285 285 285 284 284 284 284 284 284 284 283 283 283 283 283 284 284 286 287 289 291 294 296 300 306 309 309 309 308 308 308 307 306 306 306 307 307 305 305 304 304 303 303 302 301 299 298 297 296 295 295 295 294 294 293 292 292 292 291 292 291 290 289 288 288 289 289 289 290 290 290 290 290 290 290 291 292 294 294 294
286 286 286 286 286 285 285 285 284 284 284 284 284 284 283 283 283 283 282 282 282 283 284 285 287 289 292 294 297 300 302 304 305 305 305 306 306 306 306 306 306 306 305 304 304 304 303 302 301 300 299 298 297 296 295 295 294 294 294 293 292 292 292 292 292 291 290 289 288 289 289 288 289 288 288 289 289 290 290 290 290 291 292 293 293
286 286 286 286 286 285 285 285 284 284 284 284 283 283 283 283 283 282 282 282 281 282 283 283 285 288 292 294 296 297 297 299 301 302 301 302 303 303 304 304 305 305 305 304 303 303 302 302 301 300 299 298 297 296 295 295 294 294 294 293 292 291 291 291 291 291 291 290 289 289 288 288 289 288 287 288 289 289 289 290 290 290 291 292 292
287 286 285 285 285 285 285 284 284 284 284 283 283 283 283 282 283 283 282 281 281 281 281 282 283 286 289 293 295 295 294 293 294 295 296 297 299 300 301 302 303 303 303 303 302 302 301 301 300 300 299 298 297 297 296 295 295 294 294 293 293 292 291 291 291 291 291 291 290 290 289 289 290 288 286 287 287 288 289 289 290 290 290 290 291
287 286 285 285 285 285 284 284 284 284 284 283 283 282 282 282 282 282 282 281 281 280 280 281 282 282 284 286 287 287 287 287 287 288 290 291 294 297 299 300 300 301 301 301 300 300 300 299 299 300 300 298 297 296 296 295 294 294 294 293 293 293 292 291 290 290 290 291 291 291 291 291 290 287 287 288 287 286 288 289 289 289 289 290 289
286 285 285 285 285 285 284 284 284 284 283 283 283 282 282 281 281 282 282 281 280 280 280 280 280 281 281 282 283 283 284 284 284 285 286 288 290 293 296 297 298 299 300 300 300 299 299 299 298 298 299 299 297 296 295 294 294 294 294 293 293 292 292 291 290 290 289 290 290 290 290 290 290 288 288 289 288 286 286 287 288 288 288 289 289
286 286 285 284 285 285 284 284 284 283 283 283 283 282 282 281 280 281 281 281 280 280 280 280 280 280 280 281 281 281 282 283 283 283 284 286 288 289 291 293 295 296 297 298 299 299 299 299 298 297 297 298 297 296 295 294 294 293 293 293 293 292 292 291 291 290 289 289 290 290 290 290 290 290 289 289 289 287 285 285 287 288 288 288 288
286 286 285 285 285 285 285 285 284 283 283 283 283 282 282 281 280 280 280 280 280 280 279 279 279 279 279 279 280 280 280 281 282 282 283 283 285 286 287 289 291 293 294 295 296 298 298 298 298 298 297 297 297 296 295 294 294 293 293 293 292 292 292 292 291 290 290 290 289 289 289 290 290 289 289 289 288 288 287 285 285 286 287 287 287
285 285 285 285 285 285 285 284 284 283 283 283 282 282 282 281 281 280 280 280 280 280 279 279 279 279 279 279 279 279 279 279 280 281 281 281 282 283 284 285 287 289 291 292 293 294 296 297 297 297 297 296 296 296 295 294 293 293 292 292 292 292 292 291 291 291 290 290 290 289 289 289 289 288 287 288 287 288 287 285 284 285 285 286 286
285 284 285 286 286 285 284 284 284 283 283 283 282 282 282 281 281 280 280 280 280 280 279 279 279 279 278 278 278 278 278 278 279 279 280 280 281 281 282 283 283 285 287 288 290 291 292 294 295 296 297 296 295 295 295 294 293 293 292 292 292 292 291 291 291 291 290 290 290 289 289 289 289 288 287 287 287 287 287 285 284 284 285 285 286
286 285 284 284 285 285 284 284 283 283 283 283 282 282 282 281 281 280 280 280 279 279 279 279 278 278 278 278 278 278 278 278 278 278 278 279 279 280 281 281 282 283 284 285 286 288 289 290 292 293 295 296 295 294 295 294 294 293 292 292 292 292 292 291 291 290 290 290 289 289 289 289 289 289 288 288 288 287 287 285 283 284 285 284 285
286 286 284 283 283 284 284 284 283 283 283 282 282 282 282 281 281 281 280 280 280 279 279 279 279 278 278 278 277 277 277 277 277 277 278 278 278 279 279 280 281 281 282 283 283 284 285 287 288 290 292 294 294 294 294 294 294 293 292 292 292 292 292 291 291 291 290 290 290 289 289 289 289 289 289 289 288 288 287 285 283 283 284 284 284
285 286 284 283 283 284 284 284 283 283 283 282 282 282 282 281 281 280 280 280 280 280 279 279 279 278 278 278 277 277 277 277 277 277 277 277 277 278 278 279 280 280 281 282 282 282 283 284 285 287 289 291 292 293 293 293 293 293 292 292 292 292 292 292 291 291 291 290 290 290 289 289 289 289 289 289 288 287 287 285 283 283 283 283 282
285 285 284 283 284 284 284 284 284 283 283 283 282 282 282 281 281 280 280 280 280 280 280 279 279 279 278 278 278 277 277 277 277 277 276 276 277 277 278 278 279 279 279 279 280 280 281 282 283 284 286 288 290 292 293 293 293 293 293 292 292 292 292 292 292 291 291 290 290 290 290 289 289 289 289 289 289 288 287 287 285 284 283 282 281
285 285 284 283 283 283 283 284 284 284 283 283 282 282 282 281 281 281 280 280 279 279 279 279 279 279 279 279 278 278 277 277 277 277 277 276 276 277 277 277 277 277 277 277 277 278 279 280 281 282 284 286 287 289 291 292 292 292 292 292 292 292 292 292 292 291 291 291 290 290 290 289 289 289 289 289 289 289 288 288 287 286 286 285 282
284 284 283 283 283 283 282 283 284 284 283 283 282 282 282 281 281 281 281 280 280 280 279 279 279 279 279 279 279 278 278 277 277 276 276 276 276 276 276 276 275 275 275 275 275 276 276 277 278 279 281 283 285 287 289 291 292 292 292 292 292 292 292 292 292 291 291 291 290 290 290 290 289 289 289 289 289 289 288 288 288 287 287 287 284
284 283 283 282 282 282 282 282 283 283 283 283 282 282 282 281 281 281 281 280 280 280 279 279 279 279 279 279 279 278 278 278 277 277 277 276 276 276 276 275 275 275 275 275 275 275 275 276 277 278 279 281 283 284 286 289 290 291 291 292 292 292 291 291 292 291 291 291 291 290 290 290 290 289 289 289 289 289 288 287 288 288 288 287 285
284 284 283 282 282 282 282 282 282 282 282 282 282 282 282 281 281 281 280 280 280 280 279 279 279 279 279 279 279 278 278 278 278 278 277 277 276 276 275 275 275 275 274 274 274 274 275 275 276 277 278 279 281 282 284 286 288 290 291 291 292 292 291 291 291 291 291 291 291 291 290 290 290 289 289 289 289 289 289 288 287 287 288 288 286
284 284 283 282 282 282 282 282 282 282 282 282 282 282 281 281 281 280 280 280 280 280 279 279 279 279 279 279 278 278 278 278 277 278 278 277 277 276 275 275 275 274 274 274 274 274 275 275 276 277 278 279 280 281 282 283 285 288 290 290 291 291 291 291 291 291 291 291 291 291 290 290 290 290 289 289 289 289 289 288 288 287 287 288 287
283 283 282 281 281 281 281 281 281 281 281 281 281 281 281 281 280 280 280 280 280 280 279 279 279 279 279 279 279 278 278 278 278 278 277 277 277 276 276 275 275 274 274 274 274 274 275 275 276 277 278 278 279 280 281 282 283 285 288 289 290 290 290 291 291 291 291 291 291 290 290 290 290 290 290 289 289 288 288 288 288 288 287 287 287
282 281 281 280 281 280 280 281 281 281 281 281 281 281 281 281 280 280 280 280 280 279 279 279 279 279 279 279 278 278 278 278 278 278 278 277 277 276 276 276 275 275 274 274 274 274 274 275 276 276 276 277 278 279 279 280 281 283 286 288 289 289 290 290 290 291 291 291 291 290 290 290 290 290 290 289 289 288 288 288 288 288 287 287 287
281 280 280 280 280 280 280 280 280 281 281 281 281 281 281 281 280 280 280 280 280 279 279 279 279 279 279 278 278 278 278 278 278 278 278 277 277 276 276 276 276 275 275 274 274 274 274 274 274 274 275 275 276 277 278 279 280 281 283 286 288 289 289 289 290 290 290 290 291 290 290 290 290 290 290 289 289 289 288 288 288 288 288 287 287
280 280 279 279 279 279 279 280 280 280 280 280 280 280 280 280 280 280 280 280 279 279 279 279 279 279 279 278 278 278 278 278 278 278 278 277 277 276 276 276 276 275 275 274 274 274 274 273 273 273 273 274 275 276 277 278 278 279 281 283 285 288 289 289 289 289 290 290 290 290 290 290 290 290 289 289 289 289 289 288 288 288 288 287 287
279 279 279 279 279 279 279 279 279 279 279 279 279 279 279 279 279 279 279 279 279 279 279 278 278 278 278 278 278 278 278 278 277 277 277 277 277 276 276 276 276 275 275 274 274 273 273 273 272 272 273 273 274 274 275 276 277 278 279 280 282 285 287 288 288 289 289 289 289 290 290 290 290 290 289 289 289 289 289 289 288 288 288 288 287
279 279 279 278 278 278 278 278 279 278 278 278 278 278 278 278 278 278 278 279 279 279 278 278 278 278 278 277 278 277 277 277 277 277 277 277 276 276 276 276 276 275 274 274 274 273 272 272 272 272 272 272 273 273 274 274 276 277 278 279 280 282 284 287 288 288 288 289 289 289 289 290 290 290 290 290 289 289 289 289 289 288 288 288 287
279 279 278 278 278 278 278 278 278 278 278 278 277 277 277 277 277 277 277 277 278 278 278 278 278 278 277 277 277 277 277 276 276 276 276 276 276 276 276 276 275 275 274 274 273 273 272 272 271 271 271 271 272 272 273 273 275 276 277 278 279 280 282 284 286 287 288 288 288 289 289 289 289 289 290 290 290 289 289 289 289 289 288 288 287
278 278 278 277 277 277 278 278 278 278 277 277 277 276 276 276 276 276 276 276 277 277 277 277 277 277 277 277 277 276 276 275 275 274 274 274 274 275 275 275 275 274 274 274 273 273 272 271 271 271 271 271 271 272 272 273 274 275 276 277 278 279 280 281 283 285 287 288 288 288 288 289 289 289 289 289 290 289 289 289 289 289 288 288 288
278 277 277 277 277 277 277 278 277 277 276 276 276 275 275 275 276 276 276 276 276 276 277 277 277 277 276 276 276 275 275 274 274 274 274 273 274 274 274 275 275 274 273 273 273 272 271 271 270 270 270 271 271 271 272 273 274 275 276 276 277 277 279 280 281 282 284 286 287 288 288 288 288 289 289 289 289 289 289 289 289 289 288 288 287
277 277 277 277 277 277 277 277 277 276 275 275 275 275 275 275 275 275 275 275 275 275 276 276 275 275 275 274 274 274 274 273 273 273 273 273 273 273 274 274 274 273 273 272 272 272 271 270 270 270 270 270 270 270 271 272 274 275 276 276 277 277 278 279 280 281 282 283 285 286 287 288 288 288 288 289 289 289 289 289 289 289 288 288 287
276 276 276 276 277 277 277 277 276 275 275 275 274 274 274 274 274 274 273 274 274 274 274 274 274 274 274 273 273 273 273 273 272 272 272 272 272 273 274 274 273 272 272 272 271 271 270 270 269 269 269 269 269 270 271 272 274 275 276 276 277 278 278 278 279 279 280 281 283 284 286 287 287 287 288 288 288 288 289 289 289 289 289 288 288
276 276 276 276 276 277 277 276 276 275 275 274 274 274 274 273 273 273 273 273 273 273 273 272 272 272 272 272 272 272 271 271 271 271 271 272 272 273 273 273 272 272 271 271 270 270 269 269 269 269 269 269 269 270 271 273 274 275 276 277 277 278 278 278 278 279 279 280 281 282 283 285 286 286 287 287 288 288 288 288 289 289 289 288 288
276 276 276 276 276 277 277 276 275 275 274 274 274 274 273 273 273 272 272 272 272 272 272 271 271 271 271 271 271 270 270 270 271 271 272 272 272 273 273 272 272 271 271 270 270 269 269 268 268 268 269 269 269 270 271 273 274 275 276 276 277 277 278 278 278 279 279 279 280 280 281 282 284 285 286 286 287 287 287 288 288 288 288 288 288
276 276 276 276 276 276 276 275 274 274 274 274 273 273 273 272 272 272 272 272 271 271 271 270 271 271 270 270 269 270 270 271 271 271 271 271 272 272 272 272 271 271 270 270 269 269 268 268 268 268 268 269 269 270 271 273 274 275 276 276 277 277 277 278 278 278 279 279 279 279 280 281 282 283 284 285 286 286 286 287 287 287 288 288 288
275 275 275 275 275 275 275 274 274 273 273 273 273 272 272 272 272 271 271 271 270 270 270 270 270 269 269 269 269 270 270 270 270 270 270 271 271 271 271 271 271 270 269 269 268 268 268 268 268 268 268 268 269 270 271 273 274 275 276 276 276 277 277 277 277 278 278 278 279 279 279 280 281 282 282 283 284 285 285 286 286 287 287 287 287
275 275 275 275 274 274 273 273 273 273 273 272 272 272 271 271 271 270 270 270 270 270 270 269 269 269 269 269 269 269 269 269 270 270 270 270 270 270 270 270 270 269 269 268 268 268 268 267 267 268 268 268 269 270 271 273 274 275 275 275 276 276 276 277 277 277 278 278 278 278 278 279 280 281 282 282 283 283 284 285 285 285 286 286 286
274 274 274 274 273 272 272 272 272 272 272 271 271 271 270 270 270 270 270 269 269 269 268 268 268 269 269 269 269 269 269 269 269 269 269 269 269 269 269 269 269 268 268 268 268 268 267 267 267 268 268 268 269 270 272 273 274 274 275 275 275 275 275 276 276 277 277 277 277 278 278 278 278 279 281 282 282 283 283 283 284 284 285 285 285
274 274 273 272 272 272 272 272 272 271 271 270 270 270 270 269 269 269 269 269 268 268 268 268 268 269 269 268 268 268 269 268 268 268 268 268 268 268 268 268 268 268 268 267 267 267 267 267 267 268 268 269 270 270 271 272 272 273 274 274 274 274 275 275 275 276 276 276 277 277 278 278 279 279 280 281 281 282 282 282 283 283 283 284 284
273 272 272 271 271 272 272 271 271 270 270 270 269 269 269 269 269 268 268 267 267 267 268 268 268 268 268 268 267 267 267 267 267 267 267 267 268 268 267 267 267 267 267 267 267 267 267 267 267 267 268 268 269 270 270 270 271 272 273 273 273 274 274 275 275 275 276 276 276 277 278 278 279 279 280 280 281 281 281 282 282 282 282 282 283
272 271 271 271 271 271 271 270 270 269 269 269 269 268 268 268 268 267 267 267 267 267 268 268 268 267 267 267 266 266 266 266 266 266 267 267 267 267 267 267 266 266 266 266 266 266 266 266 267 267 268 268 269 269 270 270 271 272 273 273 273 273 274 274 275 275 276 276 276 276 277 277 278 279 279 280 280 280 281 281 281 281 281 281 282
271 271 271 271 271 271 270 269 269 269 268 268 268 268 268 267 267 266 267 267 267 267 267 267 267 266 266 265 265 265 265 265 265 266 266 266 266 266 266 266 266 266 266 266 266 266 266 266 267 267 268 269 269 270 270 271 271 272 272 272 272 273 273 274 275 275 275 276 276 276 277 277 277 278 278 279 279 280 280 280 280 280 281 281 281
271 271 270 270 270 270 269 268 268 268 268 268 268 267 267 266 266 266 266 267 267 267 267 266 266 265 265 265 265 265 264 265 265 265 265 265 266 266 266 266 265 265 265 266 266 266 267 267 267 268 269 270 270 270 271 271 271 271 271 272 272 272 273 274 275 275 276 276 276 276 276 276 277 277 277 277 278 279 279 279 279 280 280 280 280
270 270 270 270 270 269 268 268 268 267 267 267 267 266 266 266 266 266 266 267 267 266 266 265 265 265 265 265 264 264 264 264 264 265 265 265 265 265 265 265 265 266 266 266 266 267 267 268 268 269 270 270 270 270 270 270 270 270 270 271 271 272 273 274 274 275 275 276 276 276 276 276 276 276 276 276 277 278 278 278 279 279 280 280 279
270 270 270 269 269 268 267 267 267 267 267 267 266 266 265 265 266 266 266 266 266 266 265 265 265 265 265 264 264 264 263 264 264 265 265 265 265 265 265 266 266 266 266 266 267 267 268 268 269 269 269 269 269 269 270 270 270 270 270 270 271 272 273 273 273 274 275 275 275 275 275 275 275 275 275 276 277 277 278 278 278 279 279 279 278
269 269 269 269 268 267 267 267 267 266 267 266 266 265 265 265 265 265 266 266 266 265 265 265 264 264 264 264 264 263 263 264 264 265 265 265 265 265 265 265 265 266 266 267 267 267 267 267 268 268 268 268 268 269 269 269 269 269 269 269 270 270 271 271 272 274 275 275 275 275 275 275 275 275 275 276 276 277 277 278 278 279 278 278 277
269 269 269 268 267 267 266 266 266 266 266 266 265 265 265 265 265 265 266 266 265 264 264 264 264 264 263 263 263 263 263 264 264 264 264 264 264 264 265 265 265 265 266 266 266 266 266 266 266 266 267 267 267 268 268 268 269 269 269 269 269 269 270 271 272 273 274 274 274 274 274 274 274 275 275 275 276 276 277 277 278 278 278 277 276
268 268 268 267 266 266 266 266 266 266 266 265 265 265 265 265 265 265 265 265 264 264 264 263 263 263 262 263 263 263 263 263 263 263 263 264 264 264 264 264 265 265 265 265 265 265 266 266 266 266 266 267 267 268 268 268 268 268 269 269 269 269 269 270 271 273 273 273 273 274 274 274 274 274 275 275 276 276 276 277 277 277 277 276 276
268 268 267 266 266 266 266 265 265 265 265 265 265 264 264 264 265 265 265 264 264 263 263 263 262 262 261 262 262 262 263 263 263 263 263 263 263 264 264 264 264 265 265 265 265 266 266 266 266 266 266 267 267 268 268 268 268 268 269 269 269 269 268 269 270 271 272 272 273 273 273 273 273 273 274 275 275 276 276 276 276 276 276 276 275
268 267 266 265 265 265 265 265 265 265 265 265 264 264 264 264 265 265 264 263 263 263 262 262 261 261 261 261 262 262 262 262 263 263 263 263 263 263 264 264 264 264 265 265 266 266 266 267 267 267 267 267 267 268 269 269 269 269 270 270 270 269 269 268 269 270 271 272 272 272 272 272 272 273 274 275 275 275 275 275 275 275 275 274 274
267 266 265 265 265 265 265 264 264 264 264 264 264 264 264 264 264 264 263 263 262 262 262 261 261 261 260 261 261 262 262 262 262 262 262 262 263 263 264 264 264 264 264 265 266 266 267 268 268 268 268 268 268 269 269 269 269 270 270 270 270 269 269 268 268 269 270 271 272 272 271 271 272 273 273 274 275 275 275 274 273 274 274 273 273
266 265 265 264 264 264 264 264 264 264 264 264 263 263 264 264 264 264 263 262 262 261 261 261 260 260 260 261 261 261 261 262 262 262 262 262 263 263 263 263 263 264 264 264 265 266 267 267 268 268 268 268 268 268 268 269 269 270 269 269 269 269 269 269 268 269 269 270 271 271 271 271 272 273 273 273 274 274 274 273 273 272 272 272 272
Wind_Speed
14 20 21 23 25 27 28 29 31 33 34 36 36 36 36 35 35 35 35 37 40 39 37 35 31 26 19 17 11 16 27 30 33 35 35 34 34 35 37 39 39 38 37 37 36 36 37 38 38 39 40 40 40 40 40 40 39 37 35 33 32 31 29 29 30 30 26 20 15 15 15 14 14 14 15 16 17 17 18 20 19 18 18 19 20
12 17 20 23 24 26 28 29 31 32 33 34 35 35 35 36 35 33 33 34 36 36 35 34 32 29 22 21 21 8 15 22 26 30 33 33 33 33 34 37 40 40 38 37 36 35 35 35 37 39 41 41 40 39 38 39 39 38 36 35 33 33 33 33 35 32 25 21 17 11 8 10 12 14 15 16 16 17 18 20 21 21 20 19 19
10 12 17 21 22 24 26 27 29 29 30 32 33 34 36 37 35 33 33 34 34 33 33 32 31 30 26 25 25 18 9 2 8 12 18 24 28 32 34 34 36 37 37 37 37 37 35 34 36 38 40 41 40 38 37 38 39 38 38 38 35 32 32 35 39 35 28 24 18 8 4 5 7 11 16 17 18 19 20 21 21 22 22 21 19
9 11 14 19 21 23 24 26 27 28 30 31 32 33 34 35 34 34 34 34 35 34 31 30 31 31 28 25 22 21 21 16 9 5 4 6 14 23 28 30 32 33 35 37 37 36 35 33 32 34 37 39 40 40 39 39 40 40 40 39 37 33 30 35 40 39 35 28 15 4 4 4 4 8 15 18 20 20 19 21 22 23 24 24 22
9 10 12 17 20 22 24 25 26 27 29 30 31 31 31 33 33 33 34 34 35 36 33 30 32 34 32 28 25 24 26 28 23 19 19 16 10 10 18 23 26 28 30 33 35 35 34 32 31 32 35 37 38 39 40 41 42 42 41 40 41 38 34 35 38 38 39 37 25 10 6 4 3 8 13 13 18 20 20 21 23 24 25 26 26
8 9 12 16 19 20 23 25 26 27 27 28 29 30 30 31 32 31 33 35 35 36 35 32 32 34 35 33 30 29 28 29 29 26 25 23 20 13 8 15 21 25 27 28 30 31 31 30 30 32 35 36 35 35 35 37 40 41 42 42 43 42 38 34 35 37 37 40 37 26 18 10 7 14 10 4 13 19 20 21 23 25 26 27 28
8 9 11 15 18 19 21 23 24 25 26 27 28 29 30 31 32 30 30 33 35 36 36 35 33 31 31 28 25 25 23 24 26 27 27 26 25 20 12 8 12 19 25 28 29 29 29 27 27 28 33 36 35 33 32 33 36 39 41 44 43 42 39 35 36 37 34 36 39 35 25 15 14 19 11 4 6 12 19 22 22 23 25 27 29
8 7 9 13 16 17 18 20 22 22 24 26 26 28 29 30 32 30 29 31 33 34 35 34 33 30 29 26 24 23 22 24 27 28 29 29 27 24 20 15 9 9 15 23 29 31 32 31 29 27 29 34 36 35 34 33 34 35 36 39 40 40 40 39 39 40 36 36 38 37 28 17 18 24 23 16 7 4 11 16 20 24 25 28 29
7 7 8 12 15 16 16 18 20 21 23 24 25 26 27 28 30 30 29 29 31 33 33 33 31 30 29 27 25 25 24 24 25 26 28 30 29 28 26 22 17 12 10 12 19 27 32 33 33 31 31 33 36 37 36 34 33 33 34 35 36 38 41 39 39 42 41 37 37 37 30 20 18 22 26 23 11 6 7 7 16 21 22 28 31
7 9 11 12 14 15 16 18 20 21 22 24 24 25 26 27 28 30 29 28 28 30 31 31 31 29 29 28 27 26 26 25 24 24 26 28 30 31 30 29 26 21 17 14 12 14 22 29 32 34 34 34 35 37 36 35 33 33 35 36 36 37 38 37 36 39 41 38 37 37 32 23 18 15 19 23 14 9 9 8 18 21 17 25 33
6 8 12 14 14 13 14 16 18 20 21 23 25 26 26 27 26 26 27 27 27 27 28 29 29 29 28 28 27 27 27 26 26 25 26 28 28 29 29 29 30 28 25 21 17 15 14 18 25 32 35 34 34 35 36 36 36 36 36 36 37 36 36 35 34 34 36 35 34 35 35 32 27 20 23 28 19 10 8 7 17 25 20 22 30
5 6 9 13 15 13 12 14 16 18 19 20 22 24 26 28 27 27 26 26 26 26 26 26 27 26 27 27 28 27 27 27 27 25 26 27 26 26 27 28 30 30 29 28 25 22 19 17 18 23 32 36 35 35 36 36 37 37 36 37 38 38 36 35 33 32 33 34 34 34 36 37 36 30 27 32 27 20 15 8 13 21 16 17 26
5 5 6 10 14 15 13 13 14 16 17 17 18 19 20 22 24 27 28 28 27 25 24 25 25 24 23 25 26 26 26 26 26 26 27 26 26 26 26 27 28 29 30 31 30 28 25 23 22 20 22 30 36 37 36 36 36 36 36 38 39 39 39 36 36 35 34 36 37 36 36 36 36 33 29 32 31 26 20 11 12 17 13 13 21
7 6 7 9 13 16 15 13 13 14 14 15 17 16 17 17 16 18 22 25 27 27 25 24 23 23 22 21 23 24 24 25 25 25 26 27 26 26 25 25 25 26 28 28 28 29 28 26 25 23 21 21 28 36 38 37 36 35 35 37 38 39 39 37 37 37 36 37 37 37 37 37 37 35 32 33 33 29 24 17 14 12 9 10 14
5 5 7 10 11 13 15 13 10 12 12 12 14 14 15 16 15 14 15 16 20 23 25 26 24 23 23 22 22 22 21 22 23 23 25 26 26 26 25 25 26 25 26 27 28 29 30 29 27 25 22 21 21 28 36 39 38 36 36 36 37 38 38 38 39 38 37 38 39 39 39 38 39 38 35 35 36 36 33 29 24 12 4 5 8
4 4 5 10 12 13 17 16 12 12 12 10 11 11 12 14 15 16 15 15 15 15 18 21 22 23 24 23 24 23 21 20 20 21 23 24 24 24 24 24 25 27 28 30 31 31 31 31 30 28 25 22 20 21 27 35 39 38 37 37 38 40 40 40 41 40 40 40 39 39 39 39 40 40 39 37 38 38 36 36 34 23 11 5 4
3 3 4 7 10 12 17 18 16 15 14 11 11 10 9 11 14 14 15 16 16 15 15 14 16 19 22 23 24 24 24 22 20 20 22 23 22 22 23 25 27 28 29 32 34 33 31 30 30 29 27 24 22 21 21 26 34 38 38 38 39 40 40 41 41 40 42 41 40 39 39 39 39 38 40 40 38 38 37 37 38 35 25 11 5
5 5 6 7 8 10 15 18 19 20 19 16 13 10 10 12 13 12 13 15 15 16 16 15 14 15 17 19 22 22 22 22 23 24 24 24 22 20 21 26 29 31 32 33 34 34 34 31 29 29 28 26 24 22 21 22 25 32 36 39 40 39 38 40 41 40 41 40 39 40 40 40 39 37 40 41 40 40 38 37 38 39 36 23 12
5 5 6 8 10 12 15 17 19 22 24 21 16 11 12 15 14 12 12 14 14 14 16 16 16 15 14 15 18 19 19 19 21 25 27 27 24 21 21 24 28 32 33 34 33 33 34 32 30 29 28 27 26 24 23 22 22 26 32 36 38 38 36 39 41 40 41 39 39 40 40 40 40 38 38 39 41 42 41 39 37 38 39 35 26
6 5 6 9 13 15 17 19 21 22 25 24 16 12 14 16 14 13 13 13 14 15 16 17 17 16 15 16 17 17 16 17 19 22 26 27 27 25 24 24 27 29 31 33 33 32 30 28 28 29 29 28 28 26 24 23 24 25 28 32 36 36 34 37 40 40 40 38 38 40 41 42 40 38 38 38 39 42 43 42 40 39 39 37 34
6 5 6 10 15 18 21 22 22 22 23 20 15 13 16 16 15 16 16 16 17 18 18 18 18 17 18 19 18 16 15 16 20 22 24 25 26 27 27 27 28 28 29 30 31 30 27 25 26 28 29 29 29 28 26 24 24 25 26 29 32 33 33 35 37 38 38 37 37 38 40 42 40 38 38 39 39 40 42 43 42 40 41 39 36
6 6 8 13 17 20 21 20 20 20 19 18 19 19 20 20 20 20 19 19 20 20 19 20 20 19 20 19 18 17 18 19 21 23 25 25 24 25 27 29 31 31 30 28 26 26 26 25 26 27 28 29 29 29 27 25 24 24 26 27 29 29 30 33 34 35 37 37 37 37 38 39 39 38 39 39 39 40 40 41 42 40 40 41 40
8 9 13 17 18 19 19 18 18 18 17 19 21 22 22 23 23 23 23 22 21 20 21 21 21 21 20 19 18 20 22 23 24 25 26 25 24 25 26 28 31 32 32 29 25 22 24 26 28 29 29 29 29 29 29 28 26 24 24 25 27 28 29 30 32 34 35 36 36 37 38 37 36 36 38 38 38 39 39 39 42 41 39 40 42
10 13 17 18 17 17 18 17 18 18 19 21 22 22 23 23 23 23 23 22 22 22 23 22 21 21 20 20 21 22 23 24 26 27 27 25 24 26 27 28 29 31 33 31 26 22 23 26 30 31 29 28 28 29 30 29 28 27 25 24 25 27 29 30 31 32 34 34 35 36 38 38 36 34 36 37 36 37 39 39 39 40 39 38 40
11 13 13 13 14 16 18 19 20 21 21 21 22 23 23 24 25 25 25 25 24 24 23 21 20 20 21 22 22 23 24 25 26 28 28 27 25 26 28 29 29 29 30 30 27 25 25 26 27 30 31 30 29 29 30 30 30 29 27 25 24 24 27 30 32 32 32 33 34 35 37 38 36 35 35 36 36 37 37 38 38 37 37 37 36
14 13 9 9 13 16 19 21 22 21 20 20 22 23 24 25 26 27 27 27 25 23 22 21 22 23 24 24 24 24 24 24 25 27 27 26 26 27 28 29 30 30 28 27 27 27 27 27 27 28 31 32 31 30 30 30 30 29 28 27 25 24 24 27 30 32 33 32 33 35 37 37 36 36 37 37 38 38 37 37 37 37 37 35 33
13 10 7 10 13 16 19 21 20 18 18 20 22 23 24 25 26 27 28 28 28 26 26 26 27 27 26 26 26 24 22 22 22 24 25 27 29 32 33 32 31 29 27 26 26 26 28 30 29 28 30 32 32 30 29 28 28 29 29 28 27 25 24 24 26 29 32 33 33 34 36 37 36 36 38 39 39 39 38 38 38 38 37 35 32
11 8 8 11 12 15 20 20 16 15 17 19 21 22 24 26 26 28 28 29 30 29 30 30 30 29 28 26 24 21 21 23 25 27 30 31 34 36 37 36 31 27 25 25 25 26 29 31 31 31 30 30 30 29 27 25 26 27 28 28 27 26 25 24 24 25 27 30 33 34 35 36 37 37 38 39 39 38 37 37 38 39 37 35 34
10 9 11 12 12 16 20 19 15 14 17 19 21 23 25 25 25 26 28 28 28 29 30 31 30 28 25 22 21 22 25 28 30 32 33 34 37 38 37 37 32 25 22 22 23 26 30 31 32 32 30 28 28 28 26 24 25 25 26 27 28 27 26 25 25 24 24 25 28 32 34 35 36 37 38 38 39 39 37 36 37 38 37 35 34
10 12 12 13 16 20 22 19 15 15 18 20 22 24 24 23 24 26 27 28 28 28 27 27 27 26 25 25 27 30 31 31 31 32 34 36 38 39 39 37 30 23 20 20 23 26 29 31 33 32 30 28 28 29 27 26 25 26 26 27 28 28 27 26 25 25 25 24 24 26 30 33 34 35 37 38 39 40 39 39 39 38 37 36 34
11 13 14 16 19 23 23 18 15 17 21 22 23 23 22 23 24 26 28 28 28 27 26 26 27 29 30 32 32 32 31 31 31 33 35 37 38 40 39 33 24 19 18 20 23 26 29 31 32 32 30 29 28 28 28 27 26 25 25 26 26 26 26 26 26 25 25 25 24 24 24 27 30 32 34 36 38 39 40 41 41 41 40 39 38
13 15 17 17 18 21 21 17 16 20 23 24 25 25 23 24 26 28 29 28 26 26 27 28 30 32 32 31 30 30 32 33 33 35 37 39 39 36 30 22 16 16 19 21 25 27 29 30 30 31 30 29 28 27 27 27 26 24 23 24 25 25 24 25 26 26 25 25 24 24 24 24 25 27 30 32 34 36 39 40 41 43 42 42 43
14 15 16 16 20 23 21 18 20 23 24 26 28 26 24 26 28 29 28 26 25 26 27 29 32 31 30 29 31 33 33 32 31 31 32 32 29 23 18 16 18 21 22 25 27 28 28 28 28 29 30 29 28 27 26 26 25 24 23 23 24 24 24 24 24 25 26 25 24 24 24 25 25 25 26 28 30 32 34 37 39 41 42 42 43
14 15 17 20 24 24 21 21 24 26 28 30 28 25 25 27 28 27 26 25 26 27 28 30 29 28 28 32 34 32 29 27 27 27 27 26 22 21 21 23 24 24 24 25 26 27 28 28 28 28 29 30 29 27 26 25 24 24 23 23 24 24 24 24 24 24 25 25 25 24 24 25 26 26 26 26 27 28 29 31 34 38 40 41 41
13 15 19 23 23 22 23 25 28 29 30 28 26 24 26 26 25 25 26 26 28 29 28 27 26 29 33 33 30 26 25 26 27 27 27 25 24 25 26 25 24 23 23 24 25 27 29 29 28 28 28 29 29 26 24 24 24 22 21 22 22 23 23 23 24 24 24 24 24 24 25 25 26 26 27 27 27 28 27 27 29 31 35 38 40
16 18 19 21 22 24 28 31 31 30 28 25 25 25 26 26 25 26 28 28 28 27 26 26 28 31 31 28 26 27 29 29 28 25 23 23 23 23 23 23 23 24 25 25 26 28 28 28 28 27 27 28 28 26 25 23 21 20 19 20 21 21 21 21 22 22 23 23 24 24 25 26 26 26 26 27 27 28 28 27 27 28 30 32 35
22 22 21 22 26 31 33 32 30 27 25 25 26 27 27 29 29 29 28 27 26 26 26 28 28 27 26 27 29 30 29 28 25 22 22 23 24 25 26 26 26 27 27 26 27 27 27 27 27 26 26 28 28 26 24 22 20 19 19 19 20 20 21 21 20 21 21 22 23 23 24 26 27 27 25 25 25 26 27 28 27 28 28 28 30
22 22 22 26 31 33 30 27 25 25 26 27 29 30 31 31 30 28 26 25 25 26 26 26 25 25 26 27 27 27 26 26 25 25 26 27 27 28 27 26 26 26 26 26 26 26 25 24 24 24 24 26 27 25 23 22 22 21 20 20 20 20 20 20 19 20 21 21 22 22 23 24 26 26 25 24 23 24 25 26 26 27 27 27 28
20 20 23 29 32 29 25 24 25 27 29 30 32 33 32 29 25 24 24 25 26 25 25 25 25 25 24 24 25 26 27 27 27 27 27 26 26 25 25 24 24 24 24 25 24 23 24 24 24 24 24 25 25 24 22 22 22 20 19 19 19 19 19 19 18 19 19 20 22 22 22 23 23 23 23 23 23 24 24 25 26 25 25 27 30
21 23 27 30 28 24 22 25 27 29 31 33 33 30 26 23 23 24 25 25 25 26 26 25 23 22 24 26 27 27 27 27 27 27 26 25 24 23 23 24 24 23 23 24 23 23 24 25 25 24 24 24 24 23 20 19 19 18 17 17 18 18 18 17 17 16 16 18 20 22 22 22 22 22 21 21 21 22 23 25 25 24 25 28 30
23 27 31 30 26 22 22 26 29 31 33 33 28 23 21 23 25 25 25 25 27 27 25 22 22 24 27 28 27 27 27 28 27 26 26 25 23 23 23 23 23 23 23 23 23 23 23 25 25 24 25 25 24 23 20 18 16 15 15 15 16 17 17 17 18 18 17 18 20 21 20 20 21 22 21 20 20 21 22 24 25 27 29 28 26
24 28 31 29 24 21 24 28 30 32 32 29 23 20 23 26 26 25 26 28 28 25 21 22 26 28 28 27 27 28 28 27 26 26 26 25 24 23 23 23 22 23 23 23 23 22 22 24 24 24 24 23 19 19 18 16 14 14 15 15 15 16 16 17 19 18 17 17 18 19 19 18 19 20 20 19 19 19 20 22 24 26 27 25 23
25 29 30 26 22 23 27 30 30 30 29 25 21 23 26 26 26 26 29 29 25 21 22 26 28 28 28 28 28 29 29 28 27 26 26 25 24 23 22 22 22 22 21 21 21 20 20 21 21 21 19 16 15 16 15 12 13 15 15 15 15 15 15 16 17 16 15 15 15 16 17 16 17 17 16 16 16 17 18 19 20 21 22 22 22
25 28 28 23 21 25 29 30 29 29 26 23 22 25 26 26 26 29 30 26 21 21 25 27 27 28 29 28 27 29 29 28 26 25 24 24 23 22 21 20 19 19 19 19 18 18 18 17 17 16 15 14 14 14 11 12 15 15 14 14 14 14 14 14 16 15 13 12 12 13 13 14 14 13 12 12 13 14 16 16 16 17 18 20 20
26 28 25 21 22 27 29 28 28 28 25 23 24 26 26 26 27 29 29 23 20 23 25 25 27 29 29 28 29 29 28 26 24 23 22 22 23 22 20 18 17 17 17 16 15 15 15 15 15 16 16 16 16 15 13 14 13 12 13 15 15 15 14 14 14 14 12 9 8 9 10 11 11 10 10 10 11 13 14 14 14 16 19 20 20
26 26 23 21 24 27 26 26 27 27 25 24 25 26 26 26 28 30 27 22 20 23 25 25 27 29 29 29 29 28 26 24 22 22 22 22 21 21 19 18 17 16 15 15 15 15 15 16 16 16 18 19 18 17 15 14 11 11 14 15 15 15 14 13 12 9 8 7 6 7 8 8 9 9 8 9 11 12 12 13 14 18 21 21 21
26 24 22 22 24 26 24 23 25 26 25 25 26 26 27 27 28 28 24 20 21 24 25 26 28 29 29 28 26 25 24 23 22 22 22 21 20 20 19 18 17 16 15 16 16 16 15 14 15 17 19 20 19 18 17 16 13 13 14 15 14 15 14 12 11 7 3 5 5 5 7 7 7 7 7 8 9 11 11 11 15 21 22 22 22
26 23 21 22 24 25 24 23 24 26 25 25 25 27 28 27 26 24 21 20 22 24 25 26 28 27 27 26 24 23 23 23 23 22 21 20 20 20 20 19 18 18 18 17 17 17 16 16 17 18 18 19 20 20 20 18 15 14 14 14 13 13 14 13 11 9 6 5 5 5 6 7 6 6 7 8 8 9 10 12 18 21 21 21 21
25 22 21 24 25 25 24 24 25 26 25 23 24 28 28 25 22 21 20 21 23 24 25 26 26 26 26 25 23 23 23 22 22 22 22 22 21 19 19 20 20 19 18 18 19 18 18 19 19 19 18 17 18 18 16 14 13 13 14 13 11 10 13 13 11 10 10 7 6 6 6 7 6 6 7 7 8 8 9 13 18 20 20 20 19
24 22 23 26 27 26 25 24 27 27 23 22 26 29 26 22 21 21 21 22 24 24 24 24 25 25 26 24 22 22 22 22 22 22 23 23 21 18 17 18 20 19 18 17 18 18 19 19 18 17 16 16 16 15 13 12 13 12 10 9 8 8 11 12 11 10 9 7 6 7 7 6 6 7 7 8 10 11 10 13 17 19 20 19 19
23 22 24 27 28 26 25 26 28 25 21 23 29 27 22 21 22 21 20 22 24 23 23 23 24 24 24 23 21 21 22 22 22 22 21 22 23 22 19 17 16 17 18 18 18 17 16 17 17 16 14 12 12 12 11 11 12 11 8 8 9 9 9 9 8 9 9 7 5 5 7 8 7 7 8 9 11 12 12 14 17 18 20 20 19
Wind_Direction
33 30 27 25 24 24 24 23 23 24 24 24 25 25 24 24 23 21 19 20 21 20 21 20 16 11 3 352 319 233 218 218 219 219 218 217 213 210 209 206 205 205 203 203 203 203 203 203 201 198 197 197 197 196 195 193 193 191 189 188 185 182 183 184 181 174 162 154 158 164 170 178 185 192 196 197 198 199 199 199 196 194 202 209 209
32 29 24 22 21 22 23 23 23 23 22 22 23 23 23 25 25 22 19 20 20 18 18 19 18 15 9 4 1 322 229 220 221 222 222 221 218 214 213 210 208 209 206 203 203 204 204 202 201 199 198 198 198 198 196 194 193 191 188 186 187 185 183 183 179 174 166 162 159 150 158 181 189 194 196 197 200 203 204 206 204 197 199 207 209
28 23 20 19 18 20 23 23 23 23 22 22 22 21 22 23 23 22 21 20 19 17 17 16 17 21 21 22 23 23 20 264 227 231 228 228 225 219 218 215 213 212 209 207 207 206 206 205 203 201 200 199 198 196 196 195 193 193 191 187 185 184 185 184 184 184 177 164 155 151 162 177 200 210 205 198 198 203 206 207 207 204 203 205 206
26 22 16 16 16 19 21 21 22 23 23 22 21 21 21 20 20 21 21 21 21 19 17 15 16 20 23 26 30 32 32 37 55 48 357 284 246 231 226 223 219 217 213 211 210 209 209 208 206 204 203 202 201 198 197 196 195 194 193 189 183 180 182 185 189 191 186 171 154 122 129 153 216 214 203 202 200 201 206 207 208 208 206 207 207
27 22 15 14 15 17 20 21 21 23 23 22 20 20 20 19 19 19 20 20 21 21 20 17 18 19 20 21 23 22 20 21 25 21 12 5 341 273 246 237 228 224 219 215 214 212 211 210 209 208 206 206 205 202 200 198 197 196 194 190 187 185 185 185 189 194 195 189 180 162 140 168 228 174 179 203 204 202 205 208 210 210 209 209 210
28 26 20 16 15 16 20 21 21 23 22 21 21 21 20 18 18 19 19 19 19 21 22 22 22 23 23 24 21 16 12 10 10 7 3 0 360 352 292 259 248 238 231 226 220 216 215 213 213 213 211 209 208 207 205 203 200 199 197 195 195 193 188 184 188 194 200 199 196 195 193 196 174 154 154 200 204 205 207 206 209 211 212 212 212
20 21 21 19 15 14 17 19 21 22 21 20 20 21 20 19 19 19 19 19 19 19 22 24 25 25 26 27 25 17 9 3 2 5 4 1 2 7 6 328 282 259 248 241 234 227 222 218 217 218 215 213 212 211 211 209 205 204 203 201 199 197 191 186 188 193 197 202 205 206 206 207 187 173 170 150 178 211 211 206 207 208 211 214 215
15 11 15 18 14 12 14 16 19 20 19 18 17 18 18 18 19 20 19 19 19 19 21 24 25 25 25 24 23 18 10 3 2 4 3 2 1 3 7 8 350 304 272 256 246 239 234 229 225 223 221 219 218 216 215 214 211 210 209 207 203 199 197 194 192 192 195 202 206 207 211 213 199 193 193 181 154 190 207 209 210 207 211 215 216
10 4 4 9 9 10 13 14 16 18 18 17 15 14 14 15 16 19 20 19 18 18 20 22 23 24 24 23 20 16 11 6 5 5 2 1 0 359 0 0 359 354 333 292 263 250 242 236 230 226 224 223 222 222 220 218 217 216 215 213 210 205 203 202 198 196 198 201 202 205 210 207 195 198 197 188 173 161 183 208 204 203 214 217 216
2 358 356 359 5 9 12 15 16 16 14 12 12 10 10 12 12 15 17 17 16 17 18 20 21 21 21 21 18 15 12 9 7 5 3 2 1 358 358 357 356 354 351 343 319 284 259 245 236 230 226 224 223 225 225 222 221 221 219 217 216 213 210 207 204 203 204 205 203 202 203 197 187 190 192 189 185 177 181 193 194 195 207 213 213
356 354 352 353 359 7 14 16 15 14 10 7 7 6 6 6 7 11 14 14 12 13 16 18 19 19 18 18 16 13 12 10 7 5 3 2 0 356 355 355 355 354 351 347 344 338 312 275 254 241 234 231 229 229 229 226 222 221 221 220 219 219 217 213 211 209 208 209 209 205 203 200 196 196 194 190 188 181 174 179 194 198 203 208 209
352 350 351 353 355 358 8 12 12 12 10 7 6 3 2 1 360 1 6 10 9 8 10 13 17 18 16 15 14 12 11 9 7 5 3 1 357 352 352 354 353 352 351 348 344 342 339 326 298 265 247 239 235 233 232 230 227 223 221 220 220 219 219 217 216 215 214 213 214 212 210 210 208 208 202 195 196 194 183 174 187 192 203 215 210
345 345 347 353 357 355 355 0 6 8 7 5 3 2 1 359 357 356 356 359 1 3 4 5 10 13 14 13 12 11 10 8 6 3 1 359 356 353 353 353 351 349 348 348 346 342 338 336 331 311 277 253 242 237 234 232 231 227 223 221 220 219 218 218 218 219 219 219 219 218 216 216 215 215 211 204 203 199 189 177 177 183 195 211 209
350 348 345 345 354 355 349 345 352 354 352 351 352 355 357 356 357 354 352 352 353 355 357 358 1 3 5 6 8 9 7 5 5 3 0 358 356 355 354 352 349 346 346 345 344 341 336 333 331 327 316 287 260 246 238 234 232 230 226 222 220 219 217 218 220 221 222 223 223 223 221 221 220 219 217 211 206 201 193 178 166 180 200 195 200
345 344 338 333 338 344 341 331 323 327 329 333 337 341 345 349 350 348 346 348 348 349 350 351 353 353 355 356 357 2 2 1 3 1 359 358 356 355 354 353 350 345 344 341 336 333 329 328 326 324 325 318 294 264 246 237 234 232 230 227 225 223 221 220 222 222 223 224 224 225 225 224 223 221 220 217 212 208 204 193 178 168 182 190 193
336 340 334 337 339 339 337 324 302 302 309 312 319 324 329 334 338 336 335 337 337 339 342 344 345 345 348 349 349 351 352 355 359 357 357 357 356 355 353 351 349 344 340 336 333 330 326 323 322 321 320 320 316 295 264 244 237 235 234 232 229 227 225 224 224 223 223 223 223 225 226 227 226 224 222 222 218 214 212 206 195 183 175 178 191
305 308 308 328 335 335 336 329 312 304 299 293 299 305 306 317 324 321 322 328 329 329 330 331 335 338 342 345 346 345 344 346 350 351 353 354 352 350 347 346 346 343 339 335 333 331 328 324 320 319 317 315 314 311 292 262 244 237 235 233 231 229 225 224 224 223 224 223 222 223 226 228 229 226 224 223 221 218 215 212 207 201 194 182 175
266 272 281 298 315 325 334 336 329 320 308 290 283 290 296 305 313 309 311 321 323 325 326 321 319 323 330 338 340 339 337 337 339 340 342 346 346 340 336 338 342 341 337 335 333 331 328 325 321 319 318 316 312 311 309 291 261 244 237 235 233 230 226 224 224 224 225 224 223 223 225 228 229 227 225 223 221 220 218 215 213 210 206 201 189
273 276 286 300 316 322 326 331 331 330 322 303 282 283 300 304 308 310 311 320 323 325 326 321 315 313 313 323 330 330 327 326 329 330 331 334 336 332 329 332 337 338 337 335 331 328 327 324 322 321 319 319 316 311 310 307 288 261 245 239 236 233 228 227 226 226 227 226 224 224 224 225 227 227 227 225 222 221 220 218 216 212 211 212 205
299 302 310 321 326 327 326 325 324 326 326 318 298 290 310 316 319 319 318 325 329 328 326 322 316 311 308 312 317 317 315 316 320 322 322 324 325 323 322 328 333 335 336 335 331 327 325 323 320 320 320 320 319 315 311 310 302 283 261 247 241 236 232 230 230 228 228 227 224 224 224 224 224 224 226 226 224 222 221 220 219 215 213 216 212
315 312 320 330 332 331 326 321 323 324 328 333 331 322 329 334 333 327 324 326 328 326 323 319 315 312 310 312 312 308 305 308 312 313 313 316 317 314 313 318 326 332 333 333 332 329 325 322 319 319 319 318 316 315 313 310 305 296 280 263 250 242 236 233 233 231 229 228 226 225 225 226 225 224 225 225 224 224 222 221 220 218 216 216 214
325 324 330 331 330 329 325 324 332 335 336 342 342 334 332 331 328 324 321 317 316 313 312 311 310 308 307 309 309 307 305 305 304 305 306 307 306 304 304 307 315 325 329 329 331 330 326 322 318 316 316 314 313 312 311 310 306 300 291 277 263 251 243 239 236 234 232 230 229 228 228 228 226 224 224 224 223 222 221 221 221 220 217 216 215
335 334 331 330 331 335 337 338 340 340 338 334 329 325 321 319 318 317 313 309 307 305 303 302 302 301 302 305 307 307 306 303 300 299 299 298 296 295 296 298 305 316 323 325 326 325 322 318 314 312 312 310 310 308 306 305 304 301 297 287 274 261 252 246 242 238 236 233 231 230 230 228 225 224 224 224 224 223 221 221 222 221 219 218 216
335 331 329 333 340 345 344 340 336 333 329 327 325 322 319 317 318 317 311 308 308 308 306 301 298 298 299 302 305 308 306 302 300 299 296 291 288 287 289 292 299 309 316 319 319 316 314 312 311 311 310 307 307 307 305 303 300 299 297 293 285 271 259 253 249 245 241 237 234 232 232 230 226 224 226 225 224 223 222 222 222 222 222 220 218
329 327 329 337 344 343 338 335 332 329 329 332 336 336 334 332 331 327 321 315 311 312 312 309 306 307 307 305 304 305 305 303 302 301 296 288 282 282 285 290 297 306 310 311 311 310 310 310 309 309 307 304 303 303 302 300 298 298 296 293 291 283 269 259 253 251 248 243 238 236 235 233 229 225 225 225 224 223 221 221 223 223 223 223 220
325 325 331 338 337 337 335 332 329 331 338 344 345 344 342 340 338 336 331 325 320 319 318 314 312 311 309 306 303 302 304 307 309 307 299 288 284 284 285 288 295 301 303 302 302 305 309 309 307 305 304 302 300 298 297 295 293 293 293 291 289 288 282 270 259 253 251 248 244 240 239 236 232 228 226 226 225 224 223 222 223 224 224 224 222
321 323 331 334 333 333 331 328 328 336 345 346 343 341 339 337 335 333 330 326 323 319 315 310 306 303 301 300 299 299 301 303 308 311 305 296 293 293 290 289 293 295 295 294 294 298 306 309 306 304 302 299 298 296 293 291 289 288 288 289 288 286 285 281 271 260 252 249 246 244 242 239 235 231 229 228 227 226 225 224 224 224 224 223 222
319 327 334 332 331 330 328 325 328 339 343 341 339 336 333 330 327 326 324 321 318 314 310 306 301 296 294 292 290 291 295 299 304 308 307 303 300 296 291 290 291 288 283 284 287 296 305 308 306 304 301 297 295 295 292 289 287 286 285 285 286 285 282 281 279 273 261 252 247 245 244 242 239 236 233 231 229 227 225 225 225 225 224 222 221
325 335 332 330 328 326 324 322 325 335 337 335 332 329 326 324 323 324 324 322 320 317 312 307 301 296 294 295 297 301 304 307 307 307 306 304 301 297 290 287 286 278 270 274 284 297 306 307 306 304 300 296 293 291 290 286 283 283 283 283 283 283 282 279 277 277 272 263 254 247 244 244 242 240 238 235 233 230 226 224 224 223 222 220 219
333 333 329 329 326 322 320 317 319 328 329 327 324 322 321 321 322 324 324 323 322 321 319 316 312 309 310 311 313 314 312 310 308 305 304 301 298 294 288 282 276 266 263 275 288 299 306 306 305 303 298 294 291 288 287 283 280 278 278 279 280 279 280 279 276 274 273 269 264 256 249 246 244 242 241 240 238 235 231 229 227 224 221 218 216
332 331 331 329 323 320 317 313 315 323 323 320 319 317 316 317 318 319 319 318 317 316 317 317 315 314 313 312 312 312 310 308 306 303 300 297 294 290 283 274 262 257 268 285 296 303 306 305 303 300 296 293 291 289 287 283 279 276 273 273 274 274 274 275 274 272 270 268 267 264 259 253 248 245 243 242 241 240 237 235 233 230 226 222 217
332 333 332 328 323 319 315 313 318 321 320 319 317 314 312 313 315 316 314 312 311 312 313 314 314 313 311 310 311 311 309 307 304 302 298 294 290 284 274 263 260 275 288 298 304 305 304 303 301 297 294 292 291 290 287 284 280 276 274 272 271 270 270 269 269 269 269 268 266 264 263 259 254 249 247 245 243 242 240 238 237 236 232 229 224
333 333 329 324 319 317 315 318 322 321 319 318 315 310 310 313 315 314 312 310 310 311 312 312 311 309 308 311 312 309 307 306 307 308 306 301 291 279 271 274 283 293 299 302 303 302 301 301 299 294 292 291 291 290 286 283 281 277 275 274 273 271 268 266 266 266 266 266 266 264 263 261 258 253 250 248 246 245 243 241 240 239 237 233 229
331 327 322 319 318 318 321 323 322 320 318 317 315 312 312 315 316 315 314 315 314 313 312 310 308 308 310 310 308 305 305 308 310 313 313 310 303 295 293 292 291 293 296 298 298 299 300 300 296 291 290 290 291 289 285 281 280 278 276 275 274 272 270 268 265 263 262 262 262 262 262 260 258 255 252 250 248 247 246 243 241 239 237 236 232
324 321 320 322 324 326 324 321 319 319 319 320 320 319 318 318 320 320 318 316 313 312 311 311 311 312 310 307 306 307 309 311 310 309 308 308 306 301 296 292 291 293 295 296 298 298 298 296 293 290 289 289 289 287 284 281 279 276 276 276 276 276 272 269 266 263 261 259 258 258 259 259 258 255 252 251 249 248 247 246 243 240 237 236 233
320 320 321 325 327 325 321 318 319 321 323 325 324 323 322 320 319 318 315 313 312 312 313 314 312 310 308 308 311 313 310 307 306 307 309 311 311 308 302 298 298 298 297 297 297 296 294 292 290 288 286 286 288 286 283 280 278 276 277 279 280 282 278 272 268 265 262 260 259 257 257 257 258 256 253 250 248 247 246 245 244 242 239 237 234
320 320 322 325 325 322 320 320 322 326 328 327 324 324 322 318 316 314 312 313 314 314 313 313 310 308 309 312 313 312 309 307 308 310 311 311 309 306 304 302 300 298 298 296 294 292 291 289 287 286 285 284 285 285 283 282 282 281 281 283 283 284 281 275 271 267 265 263 261 258 256 255 255 255 255 251 246 244 243 242 241 241 241 239 238
320 323 326 327 325 322 322 323 326 327 326 325 323 321 318 313 312 313 315 316 316 314 313 312 309 309 311 313 315 315 314 313 312 311 308 305 303 301 300 299 298 295 294 293 292 291 290 287 286 287 287 284 284 287 289 287 286 284 283 284 285 282 279 276 274 271 268 266 263 259 256 252 250 250 251 250 245 242 241 239 239 240 240 239 240
324 328 328 326 323 321 322 325 326 324 322 322 320 317 313 311 313 318 319 316 314 313 312 311 310 311 315 318 319 318 316 313 310 307 305 303 302 300 299 299 297 295 294 293 293 292 289 289 289 288 286 285 286 291 291 286 283 283 283 284 284 281 278 275 272 269 267 264 262 262 260 256 253 251 249 248 245 242 241 240 238 238 238 237 239
328 329 327 324 320 318 321 324 323 320 320 320 317 314 313 315 319 320 317 313 312 312 311 311 314 320 323 322 320 317 315 313 310 308 307 305 303 302 301 301 299 297 297 294 293 292 290 290 290 287 285 284 284 286 288 285 283 283 286 287 286 282 278 276 273 271 269 264 260 260 259 257 255 254 250 247 246 242 241 242 240 236 235 237 238
327 327 326 322 317 316 321 322 321 320 320 318 316 316 320 322 321 317 312 313 312 310 311 317 324 327 325 323 321 319 317 314 310 309 307 305 304 303 301 301 300 299 297 294 293 293 290 289 290 288 287 286 283 282 286 288 287 287 291 293 289 286 283 280 277 275 270 263 258 256 256 254 253 254 252 248 247 245 242 243 242 238 237 239 238
325 326 325 320 315 318 322 320 320 321 320 318 318 323 324 322 317 313 312 313 311 311 319 326 327 325 323 322 320 318 317 314 311 311 308 306 305 304 302 301 300 297 296 293 292 292 290 290 291 290 288 289 292 294 293 291 292 297 301 298 293 291 286 280 279 278 269 261 259 259 259 259 258 258 256 251 248 247 245 244 243 242 240 236 234
325 326 322 317 317 321 321 319 320 321 318 317 321 324 324 319 314 313 313 312 311 318 326 326 323 320 319 318 317 317 316 314 312 311 308 306 305 305 305 303 299 295 294 292 292 293 294 294 293 292 295 303 310 308 304 303 307 308 307 305 301 295 288 286 294 294 277 263 264 265 264 265 264 261 257 253 250 248 246 245 245 242 234 225 225
324 322 318 316 318 320 318 317 319 320 317 317 322 323 320 315 313 315 314 310 313 323 326 324 321 318 315 313 314 315 315 313 312 311 309 308 308 308 306 304 301 298 294 291 291 295 298 299 302 308 319 327 325 319 319 321 318 313 312 315 313 308 303 303 308 302 279 263 266 268 267 269 269 264 257 252 250 248 246 246 246 236 219 209 212
322 318 315 315 318 318 317 315 317 318 316 316 322 322 316 312 314 316 312 309 317 325 325 323 320 316 313 312 312 313 314 312 311 311 310 310 311 309 307 306 305 302 297 296 300 304 307 312 318 324 329 329 327 327 328 325 319 316 320 322 320 317 314 311 310 298 274 259 263 264 265 268 266 264 260 255 253 249 245 248 244 224 206 200 203
320 316 313 315 318 318 315 313 315 316 315 317 321 320 314 311 315 316 311 310 320 325 324 322 320 316 314 312 311 312 313 311 310 312 312 310 309 307 306 306 304 301 302 305 307 308 310 313 314 316 317 318 318 317 316 318 321 324 326 327 325 320 315 314 319 303 261 246 255 253 253 258 258 259 259 253 250 250 254 252 234 210 198 197 198
318 315 313 317 320 317 313 311 313 315 315 316 318 318 314 313 315 315 314 318 325 326 323 321 319 317 316 314 311 311 311 310 310 312 312 310 308 306 305 303 302 302 302 301 299 295 295 296 297 299 302 305 307 305 304 306 309 312 318 323 327 328 322 319 331 339 269 245 258 247 242 250 253 250 251 249 246 253 259 239 207 195 195 198 200
316 313 315 320 320 316 312 310 312 313 313 313 316 317 315 314 315 317 322 327 328 325 322 320 319 318 317 314 311 310 310 309 310 311 311 310 308 306 303 300 301 302 299 295 292 287 281 279 278 281 286 292 295 299 303 306 302 301 308 311 314 326 327 319 323 342 335 283 257 245 245 248 244 239 243 244 242 246 239 206 189 188 192 196 198
314 313 316 321 321 316 311 309 312 312 310 312 318 318 315 315 317 320 326 330 329 325 322 320 319 318 317 316 313 311 310 309 309 310 311 310 307 304 302 302 303 304 300 298 298 294 288 282 276 273 276 278 282 293 308 313 302 293 298 303 303 316 327 321 312 322 331 307 261 251 256 252 245 242 239 227 219 222 209 185 181 185 187 188 190
312 313 317 321 320 315 311 310 313 311 308 314 320 317 314 316 319 320 327 333 331 327 322 320 319 318 317 316 314 312 312 311 310 309 310 310 309 306 303 302 305 307 305 304 305 305 303 301 295 288 287 283 283 293 309 313 305 299 302 312 311 306 314 319 312 310 319 313 274 255 257 260 252 241 230 208 197 197 184 168 171 179 182 183 186
312 314 318 320 318 315 312 312 312 309 309 318 320 315 314 321 321 319 326 333 332 328 323 319 318 317 317 316 315 314 314 312 310 308 308 310 311 311 309 307 307 309 310 309 309 310 313 318 318 316 317 315 312 319 324 318 315 327 342 337 319 298 290 299 309 310 308 308 299 265 248 254 252 235 221 206 193 187 178 165 164 173 180 182 183